Wausau, WI

7:34 AM CST on February 26, 2017 (GMT -0600)
Wausau Downtown

Weather History for KAUW - January, 2013

Change the Weather History Date:

Thursday, January 10, 2013

  Actual Average Record
Temperature  
Mean Temperature 27 °F 14 °F  
Max Temperature 37 °F 23 °F 47 °F (2012)
Min Temperature 16 °F 6 °F -27 °F (1982)
Degree Days  
Heating Degree Days 38 51  
Month to date heating degree days 458 504  
Since 1 July heating degree days 3451 3790  
Cooling Degree Days 0 0  
Month to date cooling degree days 0 0  
Year to date cooling degree days 0 0  
Moisture  
Dew Point 22 °F    
Average Humidity 72    
Maximum Humidity 96    
Minimum Humidity 47    
Precipitation  
Precipitation 0.23 in 0.03 in 0.84 in (2017)
Month to date precipitation 0.23 0.35  
Year to date precipitation 0.23 0.35  
Snow  
Snow 0.00 in 0.40 in 5.60 in (1924)
Month to date snowfall 0.1 4.2  
Since 1 July snowfall 24.2 26.4  
Snow Depth 6.00 in    
Sea Level Pressure  
Sea Level Pressure 30.25 in    
Wind  
Wind Speed 8 mph (ESE)    
Max Wind Speed 18 mph    
Max Gust Speed 23 mph    
Visibility 8 miles    
Events Rain    
T = Trace of Precipitation, MM = Missing Value Source: NWS Daily Summary

Daily Weather History Graph

Daily Weather History Graph

Search for Another Location

Airport or City:

Trip Planner

Search our weather history database for the weather conditions in past years. The results will help you decide how hot, cold, wet, or windy it might be!

Date:

Astronomy

Jan. 10, 2013 Rise Set
Actual Time 7:35 AM CST 4:37 PM CST
Civil Twilight 7:02 AM CST 5:10 PM CST
Nautical Twilight 6:25 AM CST 5:47 PM CST
Astronomical Twilight 5:50 AM CST 6:22 PM CST
Moon 6:14 AM CST (1/10) 3:46 PM CST (1/10)
Length of Visible Light 10h 08m
Length of Day
9h 02m
Waning Crescent, 2% of the Moon is Illuminated
Jan 10
Waning Crescent
Jan 11
New
Jan 18
First Quarter
Jan 26
Full
Feb 3
Last Quarter

Hourly Weather History & Observations

Time (CST) Temp. Windchill Dew Point Humidity Pressure Visibility Wind Dir Wind Speed Gust Speed Precip Events Conditions
12:54 AM 19.9 °F - 16.0 °F 85% 30.42 in 10.0 mi Calm Calm - N/A   Clear
1:54 AM 21.0 °F 16.2 °F 17.1 °F 85% 30.46 in 10.0 mi SSE 3.5 mph - N/A   Clear
2:54 AM 21.0 °F - 16.0 °F 81% 30.48 in 10.0 mi Calm Calm - N/A   Clear
3:54 AM 19.9 °F 14.9 °F 17.1 °F 89% 30.48 in 10.0 mi East 3.5 mph - N/A   Clear
4:54 AM 19.0 °F 10.0 °F 16.0 °F 88% 30.46 in 10.0 mi East 6.9 mph - N/A   Clear
5:54 AM 17.1 °F 10.0 °F 15.1 °F 92% 30.47 in 10.0 mi SSE 4.6 mph - N/A   Clear
6:54 AM 17.1 °F 7.6 °F 14.0 °F 88% 30.45 in 10.0 mi East 6.9 mph - N/A   Clear
7:54 AM 18.0 °F 12.7 °F 15.1 °F 88% 30.45 in 9.0 mi SE 3.5 mph - N/A   Clear
8:54 AM 19.0 °F 11.1 °F 16.0 °F 88% 30.44 in 10.0 mi East 5.8 mph - N/A   Clear
9:54 AM 23.0 °F 15.8 °F 18.0 °F 81% 30.43 in 10.0 mi ESE 5.8 mph - N/A   Clear
10:54 AM 28.9 °F - 21.0 °F 72% 30.39 in 10.0 mi Calm Calm - N/A   Clear
11:54 AM 36.0 °F 28.0 °F 19.0 °F 50% 30.34 in 10.0 mi SE 11.5 mph - N/A   Clear
12:54 PM 36.0 °F 29.6 °F 19.0 °F 50% 30.29 in 10.0 mi SE 8.1 mph - N/A   Clear
1:54 PM 36.0 °F 30.3 °F 19.9 °F 52% 30.25 in 10.0 mi ESE 6.9 mph - N/A   Clear
2:54 PM 36.0 °F 30.3 °F 18.0 °F 48% 30.24 in 10.0 mi ESE 6.9 mph - N/A   Clear
3:54 PM 35.1 °F 28.6 °F 19.0 °F 52% 30.23 in 10.0 mi ESE 8.1 mph - N/A   Clear
4:54 PM 34.0 °F 25.5 °F 21.9 °F 61% 30.19 in 10.0 mi ESE 11.5 mph - N/A   Clear
5:54 PM 34.0 °F 24.6 °F 26.1 °F 73% 30.15 in 10.0 mi ESE 13.8 mph - N/A   Mostly Cloudy
6:54 PM 35.1 °F 26.4 °F 27.0 °F 72% 30.13 in 8.0 mi ESE 12.7 mph - 0.00 in Rain Light Rain
7:54 PM 34.0 °F 25.5 °F 30.9 °F 89% 30.07 in 6.0 mi ESE 11.5 mph - 0.04 in Rain Light Rain
8:51 PM 33.8 °F 23.2 °F 30.2 °F 87% 29.95 in 4.0 mi ESE 17.3 mph - 0.09 in Rain Light Rain
8:54 PM 34.0 °F 25.0 °F 30.9 °F 89% 30.01 in 4.0 mi ESE 12.7 mph 21.9 mph 0.09 in Rain Light Rain
9:14 PM 33.8 °F 23.5 °F 32.0 °F 93% 29.94 in 3.0 mi ESE 16.1 mph 20.7 mph 0.04 in Rain Rain
9:54 PM 34.0 °F 24.6 °F 32.0 °F 92% 29.97 in 4.0 mi ESE 13.8 mph - 0.07 in Rain Light Rain
10:54 PM 34.0 °F 26.0 °F 32.0 °F 92% 29.92 in 6.0 mi SE 10.4 mph - 0.00 in   Overcast
11:54 PM 34.0 °F 25.5 °F 33.1 °F 96% 29.89 in 5.0 mi SE 11.5 mph - N/A   Overcast